KXLL

Details ICAO KXLL
Name Allentown Queen City Muni
Region United States
Timezone America/New_York (UTC-4.0)
Plans Departing 7
Arriving 13
Stats Elevation 398 ft / 121 m (AMSL)
Location 40.570397° -75.488306°
Runways 2
Magnetic Variation 12.077° W
Sunrise 2018-05-23 09:40:04 UTC / 2018-05-23 05:40:04 Local
Sunset 2018-05-24 00:20:14 UTC / 2018-05-23 20:20:14 Local
Advertisement - Login to hide

Runways

ID Width Length Bearing (true) Bearing (mag) Surface Threshold Offset Overrun Length
07 75 ft / 23 m 3,940 ft / 1,201 m 58.18° 70.26° Asphalt 0 ft / 0 m 0 ft / 0 m
15 75 ft / 23 m 3,150 ft / 960 m 135.01° 147.09° Asphalt 0 ft / 0 m 0 ft / 0 m
25 75 ft / 23 m 3,940 ft / 1,201 m 238.19° 250.27° Asphalt 0 ft / 0 m 0 ft / 0 m
33 75 ft / 23 m 3,150 ft / 960 m 315.02° 327.10° Asphalt 0 ft / 0 m 0 ft / 0 m

Map

Weather


0- 5 10 15 20 25 30 35+ Temperature / ° C

Clouds and Precipitation
Forecast for 2018-05-23 12:00 UTC. Updated 4 hours ago

Ground ~20,000 ft ~40,000 ft Winds

METAR

KXLL 231515Z AUTO 33009G15KT 290V030 10SM SCT027 SCT032 BKN060 22/16 A3000 RMK AO2

TAF

Not found

Frequencies

Unicom 122.70 MHz CTAF/UNICOM
Approach 118.20 MHz APP/DEP
Approach 124.45 MHz APP/DEP
Clearance 118.90 MHz CLNC DEL
Approach 119.65 MHz APP/DEP
Warning: Do not use this data for real-world aviation or navigation. No guarantee of current accuracy is given.